| time (UTC) | temp F | wind direction | speed MPH | gust MPH | rain 1hr in | rain 24hr in | rain mn in | humidity % | barometer mb |
| 20260505101536 | 50 | 166 | 3.0 | 4.0 | 0.00 | 0.00 | 0.00 | 84 | 1012.8 |
| 20260505100036 | 51 | 170 | 2.0 | 5.0 | 0.00 | 0.00 | 0.00 | 83 | 1012.8 |
| 20260505094536 | 52 | 169 | 2.0 | 4.0 | 0.00 | 0.00 | 0.00 | 80 | 1012.8 |
| 20260505093037 | 53 | 171 | 1.0 | 5.0 | 0.00 | 0.00 | 0.00 | 78 | 1012.7 |
| 20260505091536 | 54 | 169 | 1.0 | 3.0 | 0.00 | 0.00 | 0.00 | 77 | 1012.6 |
| 20260505090110 | 54 | 196 | 1.0 | 5.0 | 0.00 | 0.00 | 0.00 | 76 | 1012.5 |
| 20260505084536 | 55 | 148 | 1.0 | 6.0 | 0.00 | 0.00 | 0.00 | 75 | 1012.5 |
| 20260505083035 | 55 | 124 | 2.0 | 6.0 | 0.00 | 0.00 | 0.00 | 74 | 1012.5 |
| 20260505081533 | 55 | 134 | 4.0 | 7.0 | 0.00 | 0.00 | 0.00 | 75 | 1012.5 |
| 20260505080036 | 56 | 158 | 2.0 | 5.0 | 0.00 | 0.00 | 0.00 | 76 | 1012.5 |
| 20260505074536 | 56 | 144 | 4.0 | 7.0 | 0.00 | 0.00 | 0.00 | 79 | 1012.5 |
| 20260505073037 | 56 | 157 | 3.0 | 6.0 | 0.00 | 0.00 | 0.00 | 78 | 1012.5 |
| 20260505071608 | 58 | 106 | 3.0 | 5.0 | 0.00 | 0.00 | 0.00 | 75 | 1012.4 |
| 20260505070032 | 59 | 94 | 2.0 | 4.0 | 0.00 | 0.00 | 0.00 | 73 | 1012.4 |
| 20260505064532 | 60 | 122 | 2.0 | 5.0 | 0.00 | 0.00 | 0.00 | 71 | 1012.4 |
| 20260505063034 | 60 | 182 | 1.0 | 6.0 | 0.00 | 0.00 | 0.00 | 70 | 1012.4 |
| 20260505060036 | 62 | 105 | 2.0 | 4.0 | 0.00 | 0.00 | 0.00 | 65 | 1012.4 |
| 20260505054536 | 63 | 92 | 3.0 | 6.0 | 0.00 | 0.00 | 0.00 | 64 | 1012.4 |
| 20260505053031 | 64 | 259 | 4.0 | 12.0 | 0.00 | 0.00 | 0.00 | 63 | 1012.3 |
| 20260505051537 | 64 | 230 | 2.0 | 6.0 | 0.00 | 0.00 | 0.00 | 61 | 1012.3 |
| 20260505041536 | 65 | 175 | 2.0 | 5.0 | 0.00 | 0.00 | 0.00 | 53 | 1011.8 |
| 20260505040048 | 66 | 226 | 2.0 | 7.0 | 0.00 | 0.00 | 0.00 | 50 | 1011.5 |
| 20260505034650 | 67 | 194 | 3.0 | 7.0 | 0.00 | 0.00 | 0.00 | 48 | 1011.4 |
| 20260505033035 | 67 | 265 | 2.0 | 11.0 | 0.00 | 0.00 | 0.00 | 47 | 1011.2 |
| 20260505031529 | 68 | 239 | 3.0 | 9.0 | 0.00 | 0.00 | 0.00 | 45 | 1010.9 |
| 20260505030111 | 68 | 215 | 3.0 | 10.0 | 0.00 | 0.00 | 0.00 | 45 | 1010.8 |
| 20260505024649 | 69 | 262 | 3.0 | 11.0 | 0.00 | 0.00 | 0.00 | 43 | 1010.7 |
| 20260505023036 | 71 | 239 | 4.0 | 10.0 | 0.00 | 0.00 | 0.00 | 42 | 1010.6 |
| 20260505020035 | 73 | 302 | 2.0 | 6.0 | 0.00 | 0.00 | 0.00 | 40 | 1010.6 |
| 20260505014535 | 74 | 264 | 3.0 | 10.0 | 0.00 | 0.00 | 0.00 | 38 | 1010.5 |
| 20260505013031 | 74 | 280 | 4.0 | 15.0 | 0.00 | 0.00 | 0.00 | 37 | 1010.4 |
| 20260505011609 | 75 | 273 | 4.0 | 9.0 | 0.00 | 0.00 | 0.00 | 36 | 1010.4 |
| 20260505010035 | 76 | 294 | 4.0 | 11.0 | 0.00 | 0.00 | 0.00 | 34 | 1010.4 |
| 20260505003111 | 78 | 231 | 4.0 | 15.0 | 0.00 | 0.00 | 0.00 | 33 | 1010.3 |
| 20260505001536 | 78 | 264 | 3.0 | 17.0 | 0.00 | 0.00 | 0.00 | 34 | 1010.2 |
| 20260505000038 | 78 | 286 | 4.0 | 13.0 | 0.00 | 0.00 | 0.00 | 33 | 1010.2 |
| 20260504234534 | 79 | 281 | 4.0 | 13.0 | 0.00 | 0.00 | 0.00 | 33 | 1010.1 |
| 20260504231530 | 79 | 279 | 5.0 | 11.0 | 0.00 | 0.00 | 0.00 | 34 | 1010.2 |
| 20260504230142 | 79 | 268 | 4.0 | 12.0 | 0.00 | 0.00 | 0.00 | 34 | 1010.2 |
| 20260504224531 | 79 | 267 | 4.0 | 11.0 | 0.00 | 0.00 | 0.00 | 33 | 1010.4 |
| 20260504223109 | 79 | 237 | 5.0 | 17.0 | 0.00 | 0.00 | 0.00 | 32 | 1010.5 |
| 20260504221536 | 79 | 234 | 5.0 | 14.0 | 0.00 | 0.00 | 0.00 | 32 | 1010.5 |
| 20260504220035 | 80 | 276 | 5.0 | 13.0 | 0.00 | 0.00 | 0.00 | 32 | 1010.5 |
| 20260504214535 | 80 | 283 | 5.0 | 14.0 | 0.00 | 0.00 | 0.00 | 33 | 1010.6 |
| 20260504211537 | 79 | 289 | 6.0 | 17.0 | 0.00 | 0.00 | 0.00 | 33 | 1010.6 |
| 20260504210037 | 79 | 293 | 5.0 | 11.0 | 0.00 | 0.00 | 0.00 | 33 | 1010.7 |
| 20260504204536 | 80 | 287 | 5.0 | 12.0 | 0.00 | 0.00 | 0.00 | 33 | 1010.8 |
| 20260504203032 | 79 | 310 | 4.0 | 11.0 | 0.00 | 0.00 | 0.00 | 36 | 1010.9 |
| 20260504201534 | 78 | 314 | 6.0 | 12.0 | 0.00 | 0.00 | 0.00 | 38 | 1011.0 |
| 20260504200036 | 78 | 326 | 6.0 | 10.0 | 0.00 | 0.00 | 0.00 | 40 | 1011.0 |
| 20260504194533 | 78 | 11 | 6.0 | 11.0 | 0.00 | 0.00 | 0.00 | 41 | 1010.9 |
| 20260504193111 | 78 | 10 | 6.0 | 12.0 | 0.00 | 0.00 | 0.00 | 40 | 1011.0 |
| 20260504191534 | 78 | 346 | 5.0 | 8.0 | 0.00 | 0.00 | 0.00 | 41 | 1011.2 |
| 20260504190037 | 77 | 357 | 5.0 | 9.0 | 0.00 | 0.00 | 0.00 | 43 | 1011.2 |
| 20260504184533 | 76 | 12 | 6.0 | 9.0 | 0.00 | 0.00 | 0.00 | 44 | 1011.3 |
| 20260504183032 | 76 | 11 | 6.0 | 9.0 | 0.00 | 0.00 | 0.00 | 45 | 1011.3 |
| 20260504181535 | 76 | 9 | 4.0 | 7.0 | 0.00 | 0.00 | 0.00 | 45 | 1011.3 |
| 20260504174531 | 74 | 338 | 4.0 | 9.0 | 0.00 | 0.00 | 0.00 | 44 | 1011.4 |
| 20260504173035 | 74 | 4 | 4.0 | 7.0 | 0.00 | 0.00 | 0.00 | 44 | 1011.3 |
| 20260504171535 | 73 | 356 | 3.0 | 6.0 | 0.00 | 0.00 | 0.00 | 46 | 1011.3 |
| 20260504170112 | 71 | 340 | 2.0 | 6.0 | 0.00 | 0.00 | 0.00 | 49 | 1011.4 |
| 20260504130109 | 51 | 157 | 3.0 | 4.0 | 0.00 | 0.00 | 0.00 | 76 | 1010.5 |
| 20260504120143 | 53 | 160 | 3.0 | 4.0 | 0.00 | 0.00 | 0.00 | 72 | 1010.5 |